{"data":{"norad_id":57426,"intl_designator":"2023-104C","name":"2023-104C","alt_names":[],"object_type":"PAYLOAD","status":"ACTIVE","operator":null,"country":"PRC","launch_date":"2023-07-23","launch_site_code":"TAISC","launch_vehicle":null,"mission":null,"orbit_class":"UNKNOWN","rcs_meters":null,"size_class":null,"mass_kg":null,"dimensions":null,"purposes":[],"wikipedia_slug":null,"has_3d_model":false,"image_url":null,"decayed_at":null,"tle_current":{"epoch":"2026-05-25T04:14:55.214880Z","epoch_age_seconds":53121,"freshness":"FRESH","line1":"1 57426U 23104C   26145.17702795  .00013144  00000+0  47078-3 0  9991","line2":"2 57426  97.2634 209.6767 0013080  88.9171 271.3567 15.28795481158274","mean_motion":15.28795481,"eccentricity":0.001308,"inclination_deg":97.2634,"raan_deg":209.6767,"arg_perigee_deg":88.9171,"mean_anomaly_deg":271.3567,"bstar":0.00047078,"rev_number":15827,"period_min":94.191801185734,"perigee_km":470.44224628641,"apogee_km":488.38159426185,"semimajor_km":6857.5489202741,"source":"CELESTRAK","updated_at":"2026-05-25T13:38:00.066451Z"}}}